Weather in Shayhancha

Uzbekistan     39°48′38″N   64°24′30″E
temp.,
°C
wind,
m/s
gust,
m/s
humid.,
%
clouds,
%
prec.,
mm/h
press.,
hPa
HPBL,
m
13 may, thu
thu1323:00+26ne611232 0.0 1012678
02:00+24ne813340 0.0 1011498
05:00+21nne915320 0.0 1012635
08:00+22nne1115260 0.0 1013894
11:00+26nne1012140 0.0 10121258
14:00+30nne1011140 0.0 10111795
17:00+32ne1011130 0.0 10092515
20:00+29nne1114160 0.0 10101217
14 may, fri
fri1423:00+25ne1216170 0.0 1012830
02:00+22nne1117190 0.0 1012680
05:00+21nne1219190 0.0 1012670
08:00+23ne1317200 0.0 1013954
11:00+28ne1315160 0.0 10121404
14:00+31ne1111120 0.0 10112111
17:00+32ne1011110 0.0 10092427
20:00+29ne1014150 0.0 10101157
15 may, sat
sat1523:00+25ne1116260 0.0 1011877
02:00+23ne1216300 0.0 1010631
05:00+22nne1117310 0.0 1010727
08:00+22nne1215270 0.0 1011704
11:00+26nne1111160 0.0 10101107
14:00+30nne99140 0.0 10091572
17:00+32nne89130 0.0 10071891
20:00+30nne710160 0.0 1007725
16 may, sun
sun1623:00+26nne1013210 0.0 1007390
02:00+23nne913250 0.0 1007334
05:00+20nne812270 0.0 1008284
08:00+22nne78250 0.0 1009299
11:00+29nne55170 0.0 1009773
14:00+33nne53120 0.0 10071942
17:00+34n54100 0.0 10062611
20:00+31n68110 0.0 1007452
17 may, mon
mon1723:00+28nne712150 0.0 1007391
02:00+24nne57230 0.0 1007155
05:00+22nne59270 0.0 1008193
08:00+25nne67237 0.0 1009290
11:00+31ene221629 0.0 1008849
14:00+34s2294 0.0 10072422
17:00+35se12793 0.0 10062821
20:00+33n679100 0.0 1006575